Voltar ao catálogo

THOR AGENA B DEB

AtivoLEO
NORAD 1948·DEBRIS·🇺🇸 United States

Lançado Nov 29, 1965 de Vandenberg Space Force Base

Loading…

Próximas Passagens (próximas 24 horas)

TLE

AtualizadoSource: Space-Track

Época: Sep 14, 2026, 04:45 UTC

1 01948U 65098F   26257.19814794  .00007171  00000-0  12805-2 0  9999
2 01948  79.8467 182.7323 0748778  29.1898 334.9002 13.61921965821284

Acompanhe THOR AGENA B DEB em tempo real com AllMySat

Download on the App Store